[Iaude] MPEC N23: 2024 MF2 [a=1.84,e=0.38,i=2.5,H=23.6]
    mpec at cfa.harvard.edu 
    mpec at cfa.harvard.edu
       
    Tue Jul  2 21:07:45 EDT 2024
    
    
  
M.P.E.C. 2024-N23                                  Issued 2024 July 3, 01:05 UT
     The Minor Planet Electronic Circulars contain information on unusual
         minor planets, routine data on comets and natural satellites,
         and occasional editorial announcements.  They are published
    on behalf of Division F of the International Astronomical Union by the
          Minor Planet Center, Smithsonian Astrophysical Observatory,
                          Cambridge, MA 02138, U.S.A.
			  
             Prepared using the Tamkin Foundation Computer Network
                              MPC at CFA.HARVARD.EDU
            URL https://www.minorplanetcenter.net/    ISSN 1523-6714
                                    2024 MF2                                    
Observations:
     K24M02F  C2024 06 07.51204520 42 50.267-21 36 12.04         20.51GVEN023F51
     K24M02F  C2024 06 07.52368620 42 53.185-21 35 52.89         22.57GVEN023F51
     K24M02F  C2024 06 07.54699820 42 59.067-21 35 14.00         22.22GVEN023F51
     K24M02F  C2024 06 11.53906721 00 35.871-19 37 20.75         22.01GVEN023F52
     K24M02F  C2024 06 11.55026521 00 38.576-19 37 00.32         22.59GVEN023F52
     K24M02F  C2024 06 11.56145221 00 41.308-19 36 39.70               VEN023F52
     K24M02F  C2024 06 12.57731721 05 03.416-19 05 09.74         22.52GVEN023F52
     K24M02F  C2024 06 12.58384121 05 04.977-19 04 57.37         22.03GVEN023F52
     K24M02F  C2024 06 12.59036721 05 06.496-19 04 45.14         22.33GVEN023F52
     K24M02F  C2024 06 12.59689121 05 08.104-19 04 33.58         21.81GVEN023F52
     K24M02F* C2024 06 18.56744821 29 43.462-15 50 33.54         21.62wXEN023F51
     K24M02F  C2024 06 18.57910421 29 45.988-15 50 10.37         21.95wXEN023F51
     K24M02F  C2024 06 18.59077021 29 48.531-15 49 46.96         21.94wXEN023F51
     K24M02F  C2024 06 19.57194921 33 38.666-15 16 55.32         21.80GVEN023F51
     K24M02F  C2024 06 19.57276921 33 38.851-15 16 53.22         20.89GVEN023F51
     K24M02F 7C2024 06 23.06920121 46 46.091-13 19 05.51         20.7 GVEN023Z84
     K24M02F 7C2024 06 23.10133121 46 52.642-13 18 01.23         21.8 GVEN023Z84
Observer details:
F51 Pan-STARRS 1, Haleakala.  Observers J. Herman, T. Lowe, P. Minguez, A.
    Schultz, I. Smith.  Measurers K. Chambers, T. de Boer, J. Fairlamb, H.
    Gao, M. Huber, C.-C. Lin, E. Magnier, Y. Ramanjooloo, R. Wainscoat, R.
    Weryk.  1.8-m Ritchey-Chretien + CCD.
F52 Pan-STARRS 2, Haleakala.  Observers J. Herman, T. Lowe, P. Minguez, A.
    Schultz, I. Smith.  Measurers K. Chambers, T. de Boer, J. Fairlamb, H.
    Gao, M. Huber, C.-C. Lin, E. Magnier, Y. Ramanjooloo, R. Wainscoat, R.
    Weryk.  1.8-m Ritchey-Chretien + CCD.
Z84 Calar Alto-Schmidt.  Observers F. Ocana, R. Kresken, M. Micheli, L.
    Conversi.  Measurers F. Ocana, M. Micheli.  0.8-m f/3 Schmidt + CCD.
Orbital elements:
2024 MF2                                                 Earth MOID = 0.1271 AU
Epoch 2024 Mar. 31.0 TT = JDT 2460400.5                 Veres                   
M 324.82504              (2000.0)            P               Q                  
n   0.39416198     Peri.    5.27393     +0.24888030     +0.96761190             
a   1.8422684      Node   279.14225     -0.89017045     +0.21133268             
e   0.3791988      Incl.    2.45316     -0.38164796     +0.13807865             
P   2.50           H   23.61          G   0.15           U   8                  
Residuals in seconds of arc
240607 F51  0.4+  0.1+    240612 F52  0.1+  0.1-    240618 F51  0.1-  0.0
240607 F51  0.1-  0.1-    240612 F52  0.2+  0.1+    240619 F51  0.2-  0.2-
240607 F51  0.1-  0.0     240612 F52  0.4-  0.1+    240619 F51  0.1-  0.3+
240611 F52  0.1+  0.0     240612 F52  0.3+  0.6-    240623 Z84  0.1+  0.1-
240611 F52  0.0   0.1+    240618 F51  0.1+  0.1+    240623 Z84  0.3+  0.2-
240611 F52  0.3+  0.2+    240618 F51  0.1-  0.0
Ephemeris:
2024 MF2                 a,e,i = 1.84, 0.38, 2                   q = 1.1437
Date    TT    R. A. (2000) Decl.     Delta      r    Elong.  Phase     V
2024 06 03    20 22 18.4 -23 35 20   0.2227  1.1704   130.2    41.5    22.3
...
2024 06 18    21 27 28.2 -16 09 04   0.1980  1.1482   127.8    44.3    22.1
...
2024 06 26    21 57 01.2 -11 39 55   0.1934  1.1439   127.2    45.0    22.1
...
2024 07 02    22 15 50.8 -08 24 00   0.1929  1.1443   127.4    44.9    22.0
2024 07 03    22 18 40.9 -07 52 39   0.1931  1.1446   127.5    44.8    22.0
2024 07 04    22 21 25.6 -07 21 46   0.1933  1.1451   127.7    44.7    22.0
...
2024 07 10    22 36 01.8 -04 27 59   0.1956  1.1495   128.9    43.5    22.0
...
2024 07 18    22 50 36.6 -01 12 31   0.2014  1.1602   131.7    40.8    22.1
...
2024 08 02    23 03 59.1 +02 46 58   0.2195  1.1933   141.0    32.4    22.1
M. P. C. Staff               (C) Copyright 2024 MPC           M.P.E.C. 2024-N23
    
    
More information about the Iaude
mailing list